Zurück zum Katalog

STARLINK-32316

AktivKommunikationVLEO
NORAD 61860·PAYLOAD·🇺🇸 United States

Gestartet Nov 7, 2024 von Cape Canaveral Space Force Station

Loading…

Nächste Überflüge (nächste 24 Stunden)

TLE

AktuellSource: CelesTrak SupGP

Epoche: Sep 15, 2026, 03:38 UTC

1 61860C 24202R   26258.15187500 -.00029668  00000+0 -10748-2 0  2583
2 61860  43.0006 244.3447 0001200 267.1496 168.0174 15.27585362    14

Verfolge STARLINK-32316 in Echtzeit mit AllMySat

Download on the App Store